SCP
0 0 0 0 0 0 0 0 0 0 0 0 0 0 0 0 0 0 0 0 0 0 0 0 0 0 0 0 0 0 0 0 0 0 0 0 0 0 0 0 0 0 0 0
0 0 0 0 0 0 0 0 0 0 0 0 0 0 0 0 0 0 0 0 0 0 0 0 0 0 0 0 0 0 0 0 0 0 0 0 0 0 0 0 0 0 0 0
0 0 0 0 0 0 0 0 0 0 0 0 0 0 0 0 0 0 0 0 0 0 0 0 0 0 0 0 0 0 0 0 0 0 0 0 0 0 0 0 0 0 0 0
0 0 0 0 0 0 0 0 0 0 0 0 0 0 0 0 0 0 0 0 0 0 0 0 0 0 0 0 0 0 0 0 0 0 0 0 0 0 0 0 0 0 0 0
0 0 0 0 0 0 0 0 0 0 0 0 0 0 0 0 0 0 0 0 0 0 0 0 0 0 0 0 0 0 0 0 0 0 0 0 0 0 0 0 0 0 0 0
0 0 0 0 0 0 0 0 0 0 0 0 0 0 0 0 0 0 0 0 0 0 0 0 0 0 0 0 0 0 0 0 0 0 0 0 0 0 0 0 0 0 0 0
0 0 0 0 0 0 0 0 0 0 0 0 0 0 0 0 0 0 0 0 0 0 0 0 0 0 0 0 0 0 0 0 0 0 0 0 0 0 0 0 0 0 0 0
0 0 0 0 0 0 0 0 0 0 0 0 0 0 0 0 0 0 0 0 0 0 0 0 0 0 0 0 0 0 0 0 0 0 0 0 0 0 0 0 0 0 0 0
0 0 0 0 0 0 0 0 0 0 0 0 0 0 0 0 0 0 0 0 0 0 0 0 0 0 0 0 0 0 0 0 0 0 0 0 0 0 0 0 0 0 0 0
0 0 0 0 0 0 0 0 0 0 0 0 0 0 0 0 0 0 0 -0 0 0 0 0 0 0 0 0 0 0 0 0 0 0 0 0 0 0 0 0 0 0 0 0
0 0 0 0 0 0 0 0 0 0 0 0 0 0 0 0 0 0 0 0 0 0 0 0 0 0 0 0 0 0 0 0 0 0 0 0 0 0 0 0 0 0 0 0
0 0 0 0 0 0 0 0 0 0 0 0 0 0 0 0 0 0 0 0 0 0 0 0 0 0 0 0 0 0 0 0 0 0 0 0 0 0 0 0 0 0 0 0
0 0 0 0 0 0 0 0 0 0 0 0 0 0 0 0 0 0 0 0 0 0 0 0 0 0 0 0 0 0 0 0 0 0 0 0 0 0 0 0 0 0 0 0
0 0 0 0 0 0 0 0 0 0 0 0 0 0 0 0 0 0 0 0 0 0 0 0 0 0 0 0 0 0 0 0 0 0 0 0 0 0 0 0 0 0 0 0
0 0 0 0 0 0 0 0 0 0 0 0 0 0 0 0 0 0 0 0 0 0 0 0 0 0 0 0 0 0 0 0 0 0 0 0 0 0 0 0 0 0 0 0
0 0 0 0 0 0 0 0 0 0 0 0 0 0 0 0 0 0 0 0 0 0 0 0 0 0 0 0 0 0 0 0 0 0 0 0 0 0 0 0 0 0 0 0
0 0 0 0 0 0 0 0 0 0 0 0 0 0 0 0 0 0 0 0 0 0 0 0 0 0 0 0 0 0 0 0 0 0 0 0 0 0 0 0 0 0 0 0
0 0 0 0 0 0 0 0 0 0 0 0 0 0 0 0 -0 -0 0 0 0 0 0 0 0 0 0 0 0 0 0 0 0 0 0 0 0 0 0 0 0 0 0 0
0 0 0 0 0 0 0 0 0 0 0 0 0 0 0 0 -0 -0 0 0 0 0 0 0 0 0 0 0 0 0 0 0 0 0 0 0 0 0 0 0 0 0 0 0
0 0 0 0 0 0 0 0 0 0 0 0 0 0 0 0 -0 -0 0 0 0 0 0 0 0 0 0 0 0 0 0 0 0 0 0 0 0 0 0 0 0 0 0 0
0 0 0 0 0 0 0 0 0 0 0 0 0 0 0 0 -0 -0 -0 -0 0 0 0 0 0 0 0 0 0 0 0 0 0 0 0 0 0 0 0 0 0 0 0 0
0 0 0 0 0 0 0 0 0 0 0 0 0 0 0 0 -0 -0 -0 -0 0 0 0 0 0 0 0 0 0 0 0 0 0 0 0 0 0 0 0 0 0 0 0 0
0 0 0 0 0 0 0 0 0 0 0 0 0 0 0 0 0 0 -0 -0 -0 0 0 0 0 0 0 0 0 0 0 0 0 0 0 0 0 0 0 0 0 0 0 0
0 0 0 0 0 0 0 0 0 0 0 0 0 0 0 0 0 0 0 -0 -0 -0 0 0 0 0 0 0 0 0 0 0 0 0 0 0 0 0 0 0 0 0 0 0
0 0 0 0 0 0 0 0 0 0 0 0 0 0 0 0 0 0 0 0 0 -0 -0 0 0 0 0 0 0 0 0 0 0 0 0 0 0 0 0 0 0 0 0 0
0 0 0 0 0 0 0 0 0 0 0 0 0 0 0 0 0 0 0 0 0 -0 -0 0 0 0 0 0 0 0 0 0 0 0 0 0 0 0 0 0 0 0 0 0
Wind_Speed
6 7 7 6 3 1 1 2 3 3 2 3 3 3 4 5 6 7 8 8 8 8 7 7 7 7 7 7 7 6 5 4 3 2 2 1 1 0 0 1 3 3 4 4
7 6 4 3 3 2 2 3 4 4 2 3 2 2 3 4 6 6 7 8 8 7 7 7 7 7 8 7 7 7 6 5 4 2 1 0 1 1 1 1 1 3 3 4
3 4 4 5 5 4 2 2 2 2 2 3 3 4 4 5 5 5 6 7 7 7 7 8 8 8 8 8 7 6 6 6 4 3 2 1 1 1 1 1 1 2 3 3
2 3 5 6 4 3 2 1 1 2 4 3 2 3 5 4 5 5 5 6 7 7 7 7 8 8 8 8 7 7 7 6 5 5 3 2 1 2 2 2 1 2 2 3
4 4 6 4 2 2 2 1 1 2 3 4 1 2 7 4 3 3 4 5 5 6 6 7 7 7 7 7 7 7 7 6 6 5 4 3 2 2 1 2 2 2 1 2
4 2 1 2 3 2 4 4 4 3 4 4 2 1 5 4 4 3 2 2 3 4 5 6 6 6 6 7 7 7 7 6 5 5 5 4 3 2 2 2 2 2 1 2
6 5 3 2 5 4 5 5 5 6 4 5 2 0 5 6 5 3 2 2 2 3 4 5 6 7 7 8 8 7 8 7 6 6 5 5 4 4 3 3 2 3 2 2
6 7 4 3 2 2 2 4 1 2 4 6 3 3 6 5 4 3 2 3 3 3 3 4 5 6 7 8 8 8 8 7 6 6 5 5 4 3 3 3 3 3 2 2
3 6 4 1 1 2 2 1 3 1 4 4 5 5 6 5 4 5 5 4 3 2 2 2 3 5 6 7 8 8 8 7 7 7 6 5 5 4 4 4 4 3 3 2
1 6 4 4 4 2 3 1 3 2 3 5 5 4 3 4 4 4 4 4 3 2 2 2 2 3 5 5 6 6 7 7 7 6 6 4 5 5 4 4 4 4 3 2
2 4 6 5 2 2 3 3 1 1 1 1 4 5 5 3 4 3 3 3 3 2 2 1 1 1 3 4 5 6 6 6 6 7 6 6 5 5 5 5 4 4 4 3
1 2 5 4 3 2 1 1 2 1 3 1 2 6 5 3 4 3 3 3 3 3 2 2 2 1 1 3 4 5 6 6 6 6 6 6 5 5 5 5 5 5 4 4
1 4 5 7 6 4 2 2 1 1 2 2 1 6 6 4 4 5 4 4 4 4 3 3 2 1 1 1 3 4 5 5 5 6 6 6 6 5 5 5 5 5 5 5
4 2 2 1 3 3 3 3 2 3 2 2 1 3 4 4 5 5 5 4 4 4 4 4 3 2 1 1 1 3 4 4 5 5 6 6 6 6 6 6 5 5 5 5
4 2 2 2 2 2 1 2 3 3 2 2 2 2 3 4 4 4 4 5 5 5 5 5 4 3 2 1 1 2 3 4 5 5 6 6 6 6 6 6 6 6 5 6
2 2 3 3 3 3 1 1 3 2 2 2 2 1 3 3 4 5 5 5 6 6 6 5 5 4 3 2 2 2 2 3 4 5 5 4 5 5 6 6 7 6 6 6
1 3 4 4 4 4 3 1 3 3 2 2 2 1 2 3 5 5 6 5 6 6 6 6 6 5 5 4 2 2 2 2 4 4 4 4 5 5 6 6 7 7 7 7
3 4 3 3 5 5 4 4 3 4 3 2 2 3 2 3 5 6 6 6 6 6 6 6 6 5 5 4 3 2 1 2 3 3 3 3 4 5 5 6 7 7 7 6
4 4 4 4 5 2 4 3 2 3 3 2 1 2 3 3 5 5 7 7 6 6 6 5 6 5 5 5 4 3 2 1 3 3 4 4 4 5 5 6 7 7 7 7
3 5 5 5 6 4 4 4 0 4 4 3 1 2 2 1 1 3 6 6 6 6 6 5 5 5 5 5 5 4 3 3 3 4 5 5 5 5 6 6 7 6 7 7
6 6 6 7 5 1 4 1 4 6 3 4 2 2 2 2 4 4 4 5 5 5 6 6 5 5 5 5 5 4 4 4 5 5 5 5 5 6 6 6 6 6 7 7
5 5 6 5 7 2 4 3 2 4 5 3 3 2 2 2 3 4 4 5 5 5 6 6 5 5 5 5 5 5 5 6 6 5 5 6 6 6 5 6 6 6 7 8
3 2 1 1 2 6 3 3 4 2 2 2 2 2 1 1 3 4 4 5 5 6 6 6 6 6 5 5 6 7 6 6 6 6 6 6 6 6 6 6 6 6 6 7
3 1 2 3 3 3 2 3 2 2 2 2 1 1 2 2 3 4 4 5 5 6 6 6 7 7 6 6 6 7 7 7 7 7 7 6 6 6 6 5 6 6 6 7
1 3 3 3 3 3 3 2 2 2 2 2 2 2 2 3 4 4 5 5 6 6 6 6 6 7 8 7 7 7 7 7 8 8 7 6 6 6 6 6 6 8 7 7
3 4 4 2 2 2 2 1 1 1 1 2 2 2 3 3 4 5 5 5 6 6 6 6 7 8 8 8 8 7 7 7 8 8 7 6 5 5 6 6 6 7 9 9
Wind_Direction
179 195 185 174 182 17 166 170 144 114 133 221 221 213 202 185 196 197 193 191 191 193 185 180 183 187 188 187 188 180 177 165 166 171 196 201 197 280 342 2 3 347 344 343
179 186 157 146 168 193 183 162 133 125 137 236 238 219 191 192 203 208 205 199 197 192 186 179 183 187 190 185 186 182 181 172 176 173 195 252 320 294 344 328 336 342 344 342
178 111 152 178 182 189 188 180 137 133 168 205 241 167 152 157 184 194 210 209 207 201 201 188 188 192 190 189 184 184 181 173 171 169 168 169 186 239 226 276 323 335 330 336
135 133 175 183 178 209 149 103 206 206 204 146 258 131 122 135 164 183 196 199 204 201 203 192 190 192 192 189 181 185 182 178 173 179 193 216 257 291 316 309 322 306 313 326
121 156 173 169 146 203 84 117 206 212 199 158 147 142 103 111 130 152 180 193 198 198 201 193 193 192 189 181 179 184 182 182 181 192 192 227 252 290 302 294 305 303 328 320
106 144 189 105 95 136 143 158 152 187 202 142 75 100 94 74 44 58 107 156 185 189 189 190 185 182 182 176 177 182 185 185 189 199 205 223 246 268 281 285 299 293 306 310
138 136 130 162 154 164 215 210 176 172 165 109 81 82 75 49 21 10 37 95 129 165 178 185 184 182 182 181 182 185 188 189 192 203 214 225 234 252 262 279 280 290 304 308
146 135 145 193 241 187 203 269 286 144 134 122 143 102 78 46 32 40 68 92 104 134 163 181 188 185 186 187 188 191 193 195 194 205 217 229 228 242 261 268 281 286 299 314
139 112 116 134 269 275 176 136 348 71 122 129 116 116 102 66 68 71 79 87 96 111 136 160 176 182 188 191 193 197 197 198 200 207 215 227 236 237 251 257 265 276 284 300
112 127 133 147 170 69 349 115 212 218 150 129 122 104 75 57 51 54 60 67 74 82 103 126 161 182 188 189 191 195 203 204 207 210 215 218 230 229 241 255 256 264 277 284
255 161 146 172 192 123 155 163 156 102 341 181 133 97 47 44 38 33 44 53 57 56 67 88 120 156 177 183 186 192 201 208 209 212 215 220 223 227 232 242 249 255 263 266
294 238 140 122 82 351 336 10 270 218 114 33 114 96 69 41 35 32 40 43 41 37 43 63 84 112 161 188 196 199 204 209 211 214 218 223 227 223 231 238 244 248 255 259
215 225 164 153 156 155 131 77 342 1 153 179 175 105 81 61 50 42 41 43 47 48 51 62 74 88 130 192 210 212 213 215 212 209 217 221 224 225 230 238 241 247 248 249
266 241 268 167 85 121 139 138 194 237 220 172 131 98 79 47 42 44 44 47 53 48 45 44 40 42 32 246 226 228 224 217 215 213 217 223 228 228 233 235 235 242 245 247
265 203 126 77 80 128 123 159 187 231 281 272 122 110 52 32 33 44 47 48 48 44 36 29 26 21 10 330 278 253 238 218 213 216 222 227 230 228 234 238 237 238 243 249
288 200 168 157 139 154 138 166 184 201 228 202 167 129 42 42 50 53 50 44 37 30 24 17 16 12 4 355 318 275 253 235 220 223 231 235 239 232 233 237 240 236 236 242
218 222 223 192 163 206 213 205 180 147 144 190 195 65 53 84 64 50 44 39 29 19 14 10 5 1 355 352 340 304 263 232 226 228 231 236 241 236 236 236 235 234 233 237
243 219 231 217 201 225 81 83 126 126 100 88 68 66 71 88 95 67 41 30 28 18 10 6 358 355 349 350 345 330 299 247 239 242 242 242 250 246 243 241 237 236 238 234
251 226 219 225 219 188 152 145 174 182 126 84 92 81 83 115 143 87 40 21 17 14 9 4 353 352 350 350 344 332 319 288 263 261 260 254 249 248 245 241 239 239 238 236
188 231 229 215 224 223 122 102 267 214 163 105 95 79 77 160 213 56 26 16 15 14 10 4 356 359 359 352 339 330 329 316 295 280 271 264 255 248 245 244 245 242 241 239
175 191 218 223 230 189 73 89 196 214 103 94 90 79 72 36 24 28 14 14 12 10 7 360 356 356 351 344 331 323 328 323 314 300 284 271 259 253 251 248 245 242 240 241
203 193 201 214 224 173 89 150 185 62 77 88 71 59 58 38 28 16 8 6 3 1 1 355 348 347 345 339 325 319 324 321 314 304 290 278 268 261 253 247 246 243 238 239
226 294 257 251 59 78 80 69 53 70 90 74 54 37 18 355 354 353 350 351 352 350 349 345 337 333 339 338 324 316 322 317 308 299 289 283 276 263 256 249 243 242 236 239
145 183 205 184 142 115 95 90 83 69 60 42 23 4 346 332 335 335 335 336 340 342 338 333 329 327 332 333 324 317 319 312 303 297 293 288 282 273 260 253 250 246 242 240
149 189 206 207 161 156 132 96 62 55 46 33 23 355 331 323 324 326 326 330 333 332 332 327 321 319 321 324 320 322 319 309 302 299 296 295 288 283 273 259 256 255 250 250
197 218 227 220 153 190 145 77 36 32 13 352 338 335 332 321 319 320 320 324 324 324 325 321 318 318 318 319 316 318 317 307 303 302 302 298 291 284 277 272 265 254 258 258